[[{"header":{"parameterUnit":"m.s-1","parameterCategory":1,"la1":30.2991,"la2":30.254,"lo1":-89.0895,"lo2":-89.0444,"dy":0.0017,"dx":0.0017,"nx":28,"ny":28,"refTime":"2024-05-24T03:00:00:Z","depth":0,"parameterNumber":2,"parameterNumberName":"U-component_of_WINDS"},"data":[0,0,0,0,0,0,0,0,0,0,0,0,0,0,0,0,0,0,0,0,0,0,0,0,0,0,0,0,0,0,0,0,0,0,0,0,0,0,0,0,0,0,0,0,0,0,0,0,0,0,0,0,0,0,0,0,0,0,-2.3347,-2.3347,0,-2.3337,-2.3337,-2.3337,-2.335,-2.335,-2.3351,-2.3351,-2.3339,-2.3339,-2.3338,0,0,0,0,0,0,0,0,0,0,0,0,0,-2.3375,-2.3374,-2.3347,-2.3347,-2.3347,-2.3337,-2.3337,-2.3337,-2.335,-2.335,-2.3351,-2.3351,-2.334,-2.3339,-2.3338,0,0,0,0,0,0,0,0,0,0,0,0,0,-2.3364,-2.3374,-2.3347,-2.3352,-2.3352,-2.3337,-2.3337,-2.3337,-2.3349,-2.335,-2.3351,-2.3352,-2.334,-2.3339,-2.3338,-2.3317,0,0,-2.3334,-2.3334,0,0,0,0,0,0,0,0,-2.3364,-2.3363,-2.3351,-2.3352,-2.3352,-2.3345,-2.3343,-2.333,-2.3349,-2.3351,-2.3351,-2.3352,-2.3341,-2.334,-2.3336,-2.3316,-2.3316,-2.3334,-2.3334,-2.3333,-2.3333,0,0,0,0,0,0,0,-2.3365,-2.3363,-2.3343,-2.3351,-2.3352,-2.3354,-2.3353,-2.334,-2.3342,-2.3351,-2.3351,-2.335,-2.3341,-2.3337,-2.3336,-2.3316,-2.3334,-2.3333,-2.3333,-2.3332,-2.3276,-2.3275,0,0,0,0,0,0,-2.3365,-2.3364,-2.3344,-2.3343,-2.336,-2.3353,-2.3352,-2.3347,-2.3342,-2.3342,-2.335,-2.3351,-2.3339,-2.3337,-2.3336,-2.3309,-2.3333,-2.3332,-2.3331,-2.3277,-2.3276,-2.3275,0,0,0,0,0,0,-2.3366,-2.3364,-2.3344,-2.3354,-2.3351,-2.3352,-2.3346,-2.3346,-2.3343,-2.3341,-2.3341,-2.3345,-2.3339,-2.3337,-2.3321,-2.3309,-2.3332,-2.3331,-2.3278,-2.3277,-2.3275,-2.3257,0,0,0,0,0,0,-2.3367,-2.3364,-2.3356,-2.3353,-2.3351,-2.333,-2.3345,-2.3346,-2.3341,-2.3342,-2.3338,-2.3337,-2.334,-2.3323,-2.332,-2.3308,-2.333,-2.3279,-2.3277,-2.3276,-2.3258,-2.3255,-2.3252,0,0,0,0,0,-2.3368,-2.3352,-2.3356,-2.3353,-2.3342,-2.3329,-2.3328,-2.3331,-2.334,-2.3332,-2.3331,-2.3338,-2.3311,-2.3321,-2.3318,-2.3305,-2.328,-2.3278,-2.3276,-2.326,-2.3255,-2.3252,0,0,0,0,0,0,-2.3353,-2.3351,-2.3356,-2.3339,-2.3334,-2.3332,-2.3322,-2.3327,-2.332,-2.3321,-2.3325,-2.3324,-2.3306,-2.3305,-2.3316,-2.3284,-2.3297,-2.3294,-2.3285,-2.3281,-2.3278,-2.3278,-2.3329,0,0,0,0,0,-2.3348,-2.3339,-2.3338,-2.3322,-2.332,-2.3321,-2.3316,-2.3319,-2.3314,-2.3312,-2.331,-2.3305,-2.3295,-2.3288,-2.328,-2.3259,-2.3256,-2.3248,-2.3245,-2.3243,-2.324,-2.3226,-2.3221,-2.3269,-2.3269,-2.3269,0,0,-2.3337,-2.3335,-2.3329,-2.3319,-2.3316,-2.3305,-2.3319,-2.3308,-2.33,-2.331,-2.3294,-2.3293,-2.3287,-2.3268,-2.3259,-2.3265,-2.3226,-2.324,-2.3238,-2.3237,-2.3223,-2.3219,-2.3215,-2.3268,-2.3268,-2.3268,0,0,-2.3311,-2.3309,-2.3295,-2.3292,-2.3287,-2.3287,-2.3284,-2.3281,-2.328,-2.3264,-2.3271,-2.3261,-2.3245,-2.324,-2.3235,-2.3206,-2.3211,-2.3203,-2.3186,-2.3173,-2.3169,-2.3165,-2.3152,-2.3148,-2.3201,-2.3201,-2.3201,0,-2.3297,-2.3282,-2.3287,-2.3275,-2.3269,-2.3279,-2.3264,-2.326,-2.3252,-2.3248,-2.3256,-2.3234,-2.3231,-2.321,-2.3202,-2.3199,-2.3194,-2.3203,-2.3169,-2.3166,-2.3163,-2.315,-2.3146,-2.32,-2.32,-2.32,-2.32,0,-2.3265,-2.3254,-2.3243,-2.3235,-2.3229,-2.3215,-2.3217,-2.321,-2.3214,-2.3214,-2.3196,-2.3193,-2.3183,-2.3178,-2.3182,-2.3157,-2.316,-2.3169,-2.3181,-2.3157,-2.3145,-2.3141,-2.3198,-2.3199,-2.3199,-2.3199,0,0,-2.3228,-2.3223,-2.3218,-2.3214,-2.3209,-2.32,-2.3187,-2.3177,-2.3169,-2.3164,-2.3151,-2.3137,-2.3144,-2.3138,-2.3141,-2.313,-2.3104,-2.3139,-2.3139,-2.313,-2.3073,-2.3064,-2.3059,-2.3108,-2.3107,-2.3107,-2.3072,0,-2.32,-2.3176,-2.318,-2.3157,-2.3145,-2.3154,-2.3142,-2.3137,-2.3136,-2.3126,-2.3125,-2.3114,-2.3126,-2.3122,-2.3111,-2.3109,-2.3092,-2.3112,-2.3094,-2.3093,-2.3092,-2.3053,-2.3045,-2.3013,-2.3068,-2.3067,-2.3067,0,-2.3164,-2.3156,-2.3132,-2.3127,-2.3122,-2.3111,-2.3101,-2.3092,-2.3086,-2.3086,-2.3079,-2.3084,-2.3069,-2.3084,-2.3061,-2.3075,-2.3068,-2.3066,-2.3065,-2.3061,-2.3076,-2.3046,-2.3003,-2.2997,-2.306,-2.3061,-2.3061,0,-2.3137,-2.3121,-2.3103,-2.3099,-2.3094,-2.3085,-2.3082,-2.3077,-2.307,-2.3062,-2.3057,-2.3047,-2.304,-2.3032,-2.3033,-2.3044,-2.3009,-2.3025,-2.3007,-2.3007,-2.2997,-2.2997,-2.2949,-2.2998,-2.2998,-2.2998,-2.2998,0,-2.3103,-2.3087,-2.309,-2.3079,-2.3061,-2.3065,-2.3047,-2.3045,-2.304,-2.3027,-2.3035,-2.3023,-2.3027,-2.3015,-2.3016,-2.2996,-2.2994,-2.2992,-2.2992,-2.299,-2.2989,-2.2983,-2.2984,-2.2996,-2.2997,-2.2997,-2.2997,0,-2.3069,-2.3071,-2.3051,-2.3047,-2.3046,-2.3032,-2.3028,-2.3017,-2.3017,-2.3001,-2.2998,-2.2998,-2.2984,-2.2985,-2.2969,-2.297,-2.2944,-2.2948,-2.2946,-2.2945,-2.2926,-2.2927,-2.287,-2.2862,-2.2918,-2.2918,-2.2917,0,-2.3046,-2.3034,-2.3028,-2.302,-2.3017,-2.3005,-2.2998,-2.3002,-2.2993,-2.2985,-2.2974,-2.2961,-2.295,-2.2927,-2.2925,-2.2912,-2.2914,-2.2896,-2.2912,-2.291,-2.291,-2.291,-2.2907,-2.2891,-2.2891,-2.289,-2.289,0,-2.3005,-2.3006,-2.2996,-2.2985,-2.2976,-2.2968,-2.296,-2.2953,-2.2956,-2.2947,-2.2932,-2.2924,-2.2908,-2.2894,-2.2882,-2.2878,-2.2883,-2.2885,-2.2879,-2.2875,-2.2873,-2.2871,-2.2933,-2.2885,-2.2886,-2.2886,-2.2886,-2.2887,-2.2974,-2.2962,-2.2956,-2.2943,-2.2938,-2.293,-2.2919,-2.2917,-2.2906,-2.2892,-2.2896,-2.2879,-2.2871,-2.2856,-2.285,-2.2836,-2.2843,-2.2836,-2.2834,-2.2831,-2.2827,-2.2878,-2.2835,-2.2835,-2.2835,-2.2835,-2.2835,0,-2.293,-2.2926,-2.2915,-2.2904,-2.2893,-2.2901,-2.2893,-2.2883,-2.2868,-2.2861,-2.285,-2.2833,-2.2819,-2.2815,-2.2801,-2.279,-2.2792,-2.2786,-2.2786,-2.2784,-2.2824,-2.2828,-2.2785,-2.2785,-2.2785,-2.2785,-2.2785,-2.2785,-2.2906,-2.2886,-2.2886,-2.2863,-2.2859,-2.2843,-2.2837,-2.2829,-2.2823,-2.2803,-2.2792,-2.279,-2.2783,-2.2769,-2.2756,-2.2755,-2.2748,-2.274,-2.274,-2.2777,-2.2782,-2.2786,-2.279,-2.2739,-2.2739,-2.2701,-2.27,-2.27]},{"header":{"parameterUnit":"m.s-1","parameterCategory":1,"la1":30.2991,"la2":30.254,"lo1":-89.0895,"lo2":-89.0444,"dy":0.0017,"dx":0.0017,"nx":28,"ny":28,"refTime":"2024-05-24T03:00:00:Z","depth":0,"parameterNumber":3,"parameterNumberName":"V-component_of_WINDS"},"data":[0,0,0,0,0,0,0,0,0,0,0,0,0,0,0,0,0,0,0,0,0,0,0,0,0,0,0,0,0,0,0,0,0,0,0,0,0,0,0,0,0,0,0,0,0,0,0,0,0,0,0,0,0,0,0,0,0,0,4.2697,4.2697,0,4.2749,4.275,4.2751,4.2804,4.2805,4.2805,4.2806,4.2861,4.2862,4.2863,0,0,0,0,0,0,0,0,0,0,0,0,0,4.2644,4.2645,4.2697,4.2697,4.2698,4.2749,4.275,4.2751,4.2804,4.2805,4.2806,4.2806,4.2861,4.2862,4.2863,0,0,0,0,0,0,0,0,0,0,0,0,0,4.2679,4.2645,4.2697,4.2731,4.2734,4.2749,4.275,4.2751,4.2804,4.2805,4.2806,4.2807,4.286,4.2862,4.2863,4.2849,0,0,4.2866,4.2867,0,0,0,0,0,0,0,0,4.2677,4.2681,4.2725,4.2728,4.2732,4.2771,4.2752,4.2784,4.2803,4.2777,4.2806,4.2807,4.283,4.2834,4.2842,4.2851,4.2854,4.2867,4.2867,4.2868,4.2868,0,0,0,0,0,0,0,4.2675,4.2679,4.2718,4.2726,4.273,4.2744,4.275,4.2758,4.2797,4.278,4.2784,4.2789,4.2833,4.284,4.2843,4.2854,4.2866,4.2868,4.2868,4.2869,4.2859,4.2858,0,0,0,0,0,0,4.2667,4.2677,4.2716,4.2719,4.2707,4.2744,4.2751,4.2758,4.2797,4.2804,4.2788,4.2791,4.2838,4.2842,4.2845,4.2834,4.2868,4.2869,4.287,4.286,4.2859,4.2858,0,0,0,0,0,0,4.2665,4.267,4.2714,4.2699,4.2706,4.2744,4.2751,4.2758,4.2766,4.2804,4.2811,4.2789,4.2839,4.2844,4.2848,4.2837,4.2869,4.287,4.2861,4.286,4.2858,4.2809,0,0,0,0,0,0,4.2664,4.2669,4.2663,4.2698,4.2706,4.2714,4.275,4.2758,4.2768,4.2773,4.2806,4.2813,4.284,4.2846,4.2849,4.2839,4.2871,4.2862,4.2861,4.2859,4.2812,4.2806,4.2801,0,0,0,0,0,4.2662,4.2646,4.2662,4.2667,4.27,4.2714,4.2718,4.275,4.2767,4.2762,4.2787,4.2812,4.2837,4.2846,4.285,4.284,4.2863,4.2861,4.2859,4.2814,4.2807,4.2801,0,0,0,0,0,0,4.2608,4.2652,4.267,4.2666,4.2686,4.2723,4.2717,4.2741,4.2756,4.276,4.2799,4.2806,4.2807,4.2824,4.2833,4.283,4.2854,4.2853,4.2819,4.2812,4.2807,4.2803,4.2872,0,0,0,0,0,4.2596,4.2603,4.2641,4.2634,4.2643,4.2678,4.2685,4.2708,4.2731,4.2739,4.2764,4.2785,4.2799,4.2806,4.282,4.2815,4.2825,4.281,4.2805,4.28,4.2798,4.28,4.2795,4.2851,4.2851,4.2851,0,0,4.257,4.2595,4.2597,4.2624,4.2642,4.265,4.2685,4.2691,4.2697,4.274,4.2746,4.2766,4.2792,4.2793,4.2794,4.2807,4.2785,4.2797,4.2793,4.2794,4.2797,4.2792,4.2787,4.2849,4.285,4.285,0,0,4.2529,4.2547,4.2544,4.2562,4.259,4.2614,4.2613,4.2647,4.2662,4.2669,4.2702,4.2711,4.2732,4.2751,4.2763,4.2731,4.2756,4.2735,4.2707,4.2708,4.2703,4.27,4.2691,4.2687,4.2733,4.2733,4.2733,0,4.2494,4.2506,4.254,4.2545,4.2556,4.2596,4.2595,4.2611,4.2641,4.2649,4.2663,4.2693,4.2713,4.272,4.2712,4.272,4.2722,4.2731,4.2701,4.2698,4.2695,4.2687,4.2683,4.273,4.2731,4.2731,4.2731,0,4.2463,4.2471,4.2465,4.2495,4.2506,4.2507,4.2543,4.255,4.2573,4.2596,4.2604,4.2631,4.2652,4.2655,4.2677,4.2666,4.2674,4.2694,4.2719,4.2686,4.268,4.2676,4.2727,4.2728,4.2728,4.2729,0,0,4.2387,4.2437,4.2434,4.245,4.2484,4.2492,4.2496,4.2517,4.2524,4.2544,4.255,4.2569,4.2589,4.2603,4.2627,4.2628,4.2604,4.2649,4.265,4.2641,4.2597,4.2582,4.2578,4.2621,4.2621,4.262,4.2596,0,4.2352,4.2362,4.2394,4.2395,4.2404,4.2443,4.2448,4.247,4.2493,4.2505,4.2531,4.2544,4.2568,4.2577,4.258,4.2606,4.2596,4.2609,4.2629,4.2629,4.2622,4.2574,4.2558,4.2533,4.2593,4.2592,4.2592,0,4.2312,4.2331,4.2332,4.2369,4.2374,4.2377,4.2401,4.2412,4.2439,4.2456,4.2473,4.25,4.251,4.2533,4.2547,4.2555,4.2566,4.2581,4.2581,4.2584,4.2609,4.2578,4.2525,4.2522,4.2588,4.2588,4.2588,0,4.2259,4.2285,4.229,4.2301,4.2343,4.2345,4.2363,4.2392,4.2403,4.2424,4.2433,4.2454,4.2467,4.2484,4.2518,4.2531,4.253,4.2555,4.2545,4.2545,4.2543,4.2543,4.2493,4.2548,4.2548,4.2548,4.2548,0,4.2217,4.2217,4.2267,4.227,4.2272,4.231,4.2311,4.2333,4.2358,4.2368,4.2403,4.2412,4.2455,4.247,4.2496,4.2506,4.2511,4.2526,4.2533,4.2523,4.2522,4.2531,4.2534,4.2547,4.2548,4.2548,4.2548,0,4.2158,4.2191,4.22,4.224,4.225,4.225,4.2285,4.229,4.2316,4.2328,4.2333,4.2373,4.2392,4.2428,4.2456,4.2475,4.2479,4.2491,4.2469,4.2474,4.2463,4.2464,4.2419,4.2416,4.2471,4.247,4.247,0,4.213,4.2131,4.2171,4.218,4.2197,4.221,4.2223,4.2261,4.2273,4.2306,4.2308,4.233,4.2349,4.2378,4.2411,4.2434,4.2447,4.243,4.2451,4.2442,4.2449,4.2449,4.2451,4.2425,4.2424,4.2423,4.2423,0,4.2076,4.2093,4.2109,4.2132,4.2146,4.2166,4.2187,4.2193,4.2237,4.2248,4.2268,4.2283,4.2314,4.2336,4.2364,4.2384,4.2412,4.2416,4.2416,4.2406,4.2394,4.2402,4.2458,4.2417,4.2418,4.2418,4.2418,4.2419,4.2033,4.2037,4.2066,4.2084,4.2105,4.2125,4.2133,4.216,4.2176,4.2204,4.2226,4.2244,4.2275,4.2316,4.2335,4.2352,4.2365,4.2363,4.2363,4.2362,4.2359,4.2391,4.2357,4.2357,4.2358,4.2358,4.2358,0,4.1983,4.2004,4.202,4.205,4.2064,4.2088,4.2115,4.2126,4.2141,4.2167,4.2186,4.221,4.2233,4.2268,4.2294,4.2301,4.2314,4.2306,4.2307,4.2312,4.2345,4.2344,4.2295,4.2295,4.2295,4.2295,4.2295,4.2295,4.1958,4.1967,4.1987,4.2007,4.2029,4.2047,4.2061,4.208,4.2102,4.2127,4.2145,4.2168,4.2199,4.2228,4.2251,4.2261,4.2269,4.2258,4.2272,4.2303,4.2309,4.2314,4.2313,4.2259,4.2259,4.2237,4.2237,4.2237]}]]